默认 日期 大小 文件数 浏览量 最新下载 xml
10 15磁力链接相关资源由用户搜索指令自动获取,结果来源于网络,本站不存储任何资料,亦不承担任何责任,请于24小时内删除,搜索到48855个磁力,显示前4000条数据,用时52ms。
    {"0001.jpg": 275820, "0002.jpg": 270256, "0003.jpg": 230435, "0004.jpg": 257242, "0005.jpg": 343960, "0006.jpg": 284493, "0007.jpg": 264097, "0008.jpg": 283334, "0009.jpg": 287173, "0010.jpg": 428000, "0011.jpg": 354343, "0012.jpg": 397419, "0013.jpg": ...
创建时间: 2018-11-01 12:45:36 大小:107.94 MB 文件数量:343 热度:42 最近下载:2025-09-18 16:04:02
    {"atkg.18.10.15.harmony.wonder.toys[N1C].mp4": 524804814}
创建时间: 2018-11-01 14:10:04 大小:500.49 MB 文件数量:1 热度:21 最近下载:2025-06-11 07:24:02
    {"RARBG.txt": 30, "DigitalPlayground.18.10.15.Cadence.Lux.Pussy.Projection.XXX.SD.MP4-KLEENEX.mp4": 327886138}
创建时间: 2018-11-01 16:11:25 大小:312.7 MB 文件数量:2 热度:27 最近下载:2024-12-30 08:17:01
    {"crack": {"run_bae64.exe": 281710}, "ReadMe.inf": 1068, "Torrent downloaded from Divxhunt.me.txt": 84, "YouTube Video Downloader (YTD) 10.15.2.0 Pro + Crack.exe": 14630998}
创建时间: 2018-11-01 16:30:09 大小:14.22 MB 文件数量:4 热度:13 最近下载:2025-01-29 12:46:01
    {"RARBG.com.txt": 34, "xxxshades.16.10.15.sicilia.and.nesty.mp4": 1965030897, "xxxshades.16.10.15.sicilia.and.nesty.nfo": 5192}
创建时间: 2018-11-01 17:01:53 大小:1.83 GB 文件数量:3 热度:45 最近下载:2025-08-03 14:13:03
    {"Sample": {"mygf.13.10.15.layla.rose.and.aurielee.summers-sample.mp4": 24647059}, "RARBG.com.txt": 34, "mygf.13.10.15.layla.rose.and.aurielee.summers.mp4": 734126573, "mygf.13.10.15.layla.rose.and.aurielee.summers.nfo": 7028}
创建时间: 2018-11-01 17:14:23 大小:723.63 MB 文件数量:4 热度:53 最近下载:2025-08-05 13:08:05
    {"rydenarmani.17.10.15.red.demon.returns.joi.mp4": 390949840}
创建时间: 2018-11-01 17:39:55 大小:372.84 MB 文件数量:1 热度:30 最近下载:2025-09-17 13:12:09
    {"autorun.txt": 384, "Torrent downloaded from 1337x.org.txt": 44, "PowerISO FULL 10.15 + Crack [TechTools].exe": 5795278}
创建时间: 2018-11-01 18:07:50 大小:5.53 MB 文件数量:3 热度:13 最近下载:2025-01-27 08:29:06
    {"RARBG.txt": 30, "aunt.18.10.15.afeena.masturbates.for.you.at.the.office.mp4": 670742220, "aunt.18.10.15.afeena.masturbates.for.you.at.the.office.nfo": 5214}
创建时间: 2018-11-01 18:33:16 大小:639.67 MB 文件数量:3 热度:29 最近下载:2025-09-30 03:38:02
    {"RARBG.txt": 30, "atkgfs.18.10.15.ivy.wolfe.mp4": 2163411790, "atkgfs.18.10.15.ivy.wolfe.nfo": 5192}
创建时间: 2018-11-01 18:41:33 大小:2.01 GB 文件数量:3 热度:59 最近下载:2025-04-25 21:09:02
    {"Install.Notes.url": 1368, "Power Iso 10.15 + Keygen + Crack.exe": 19472616, "Power Iso 10.15 + Keygen + Crack.nfo": 692, "Torrent downloaded from Digtorrent.org.txt": 92}
创建时间: 2018-11-01 19:42:48 大小:18.57 MB 文件数量:4 热度:15 最近下载:2025-03-13 08:14:02
    {"Sample": {"sexo-1000f-alexis-121015-sample.mp4": 51717838}, "RARBG.com.txt": 34, "sexo-1000f-alexis-121015.mp4": 848914830, "sexo-1000f-alexis-121015.nfo": 1055}
创建时间: 2018-11-01 20:29:32 大小:858.91 MB 文件数量:4 热度:17 最近下载:2025-03-16 02:37:01
    {"RARBG.com.txt": 34, "spizoo.16.10.15.jasmine.jae.tease.you.mp4": 264264127, "spizoo.16.10.15.jasmine.jae.tease.you.nfo": 5184}
创建时间: 2018-11-01 21:02:27 大小:252.03 MB 文件数量:3 热度:47 最近下载:2025-08-04 10:20:07
    {"RARBG.txt": 30, "GogoBarAuditions.17.10.15.Tippiwan.To.Pay.For.Class.She.Must.Sell.Her.Ass.XXX.SD.MP4-KLEENEX.mp4": 166473518}
创建时间: 2018-11-01 21:34:49 大小:158.76 MB 文件数量:2 热度:30 最近下载:2025-10-03 23:15:02
    {"fugli.nfo": 12178, "file_id.diz": 683, "RARBG.com.txt": 34, "spencerscottts052913-p02_001.jpg": 982000, "spencerscottts052913-p02_002.jpg": 874799, "spencerscottts052913-p02_003.jpg": 1201400, "spencerscottts052913-p02_004.jpg": 828158, " ...
创建时间: 2018-11-01 22:04:37 大小:130.1 MB 文件数量:153 热度:26 最近下载:2025-06-27 18:23:01
    ... "Folder.auCDtect.txt": 8096, "15. Strangelove.flac": 35699081, "09. ... Night.flac": 36278768, "10. World Full Of Nothing ... dm1990-10-15.aud.unknown.unknown.flac1644.ffp": 1166, "dm1990-10-15. ... aud.unknown.unknown.flac1644.md5": 1403, "dm1990-10-15. ...
创建时间: 2018-11-01 22:19:24 大小:758.84 MB 文件数量:24 热度:11 最近下载:2023-04-06 11:30:03
    {"autorun.txt": 288, "Torrent downloaded from Divxhunt.me.txt": 40, "Windows Movie Maker 10.2 (For Windows 7. 8. 10)15.35.exe": 15056544}
创建时间: 2018-11-01 22:30:18 大小:14.36 MB 文件数量:3 热度:17 最近下载:2025-02-12 22:15:01
    {"精品资源[shoucang2016.com].jpg": 43943, "_____padding_file_0_如果您看到此文件,请升级到BitComet(比特彗星)0.85或以上版本____": 187282, "喷血推荐-蚊帐房偷拍身材样貌很不错的美女被操痛不让干了,男友拔出鸡巴后想了下又强行把美女拉过来继续操!.mp4": 502342766}
创建时间: 2018-11-01 22:55:22 大小:479.29 MB 文件数量:3 热度:1087 最近下载:2025-10-17 22:27:03
    {"Install.Notes.txt": 524, "www.MEGAtorrent.co.jpg": 119324, "Torrent downloaded from 1337x.org.txt": 24, "YouTube Video Downloader (YTD) 10.15.2.0 Pro + Crack.exe": 13460394, "YouTube Video Downloader (YTD) 10.15.2.0 Pro + Crack.nfo": 540}
创建时间: 2018-11-02 01:20:21 大小:12.95 MB 文件数量:5 热度:11 最近下载:2024-12-27 08:17:02
    {"RARBG.txt": 30, "nubiles.18.10.15.katy.sky.solo.play.mp4": 727980920, "nubiles.18.10.15.katy.sky.solo.play.nfo": 5187}
创建时间: 2018-11-02 01:21:35 大小:694.26 MB 文件数量:3 热度:37 最近下载:2025-07-27 19:25:02